Location: Unspecified
(42.3650°N, 71.1030°W)
Time: 09:46:22
(UTC+00:00)

Tiros 1 - Visible Passes

Search period start: 21 June 2024 00:00
Search period end: 01 July 2024 00:00
Orbit: 624 x 657 km, 48.4° (Epoch: 20 June)

Date Brightness Start Highest point End Pass type
(mag) Time Alt. Az. Time Alt. Az. Time Alt. Az.
21 Jun 7.9 04:58:12 38° E 04:58:12 38° E 05:01:22 10° ENE visible
21 Jun 7.8 06:35:41 18° W 06:38:58 51° NNW 06:43:31 10° ENE visible
21 Jun 8.5 08:17:16 10° WNW 08:21:38 39° N 08:26:02 10° ENE visible
22 Jun 7.0 05:20:21 75° W 05:20:43 86° NNW 05:25:21 10° ENE visible
22 Jun 8.3 06:58:47 10° WNW 07:03:08 40° N 07:07:33 10° ENE visible
23 Jun 8.5 04:04:54 26° E 04:04:54 26° E 04:07:07 10° ENE visible
23 Jun 7.7 05:42:21 26° W 05:44:44 55° NNW 05:49:17 10° ENE visible
23 Jun 8.5 07:23:01 10° WNW 07:27:22 39° N 07:31:45 10° ENE visible
24 Jun 7.0 04:26:42 82° E 04:26:42 82° E 04:31:08 10° ENE visible
24 Jun 8.3 06:04:29 10° W 06:08:52 42° N 06:13:17 10° ENE visible
24 Jun 8.3 07:47:07 10° WNW 07:51:34 44° NNE 07:56:02 10° E visible
25 Jun 8.4 03:10:39 25° E 03:10:39 25° E 03:12:50 10° ENE visible
25 Jun 7.6 04:48:02 26° W 04:50:29 59° NNW 04:55:04 10° ENE visible
25 Jun 8.5 06:28:46 10° WNW 06:33:05 38° N 06:37:26 10° ENE visible
25 Jun 7.7 08:11:04 10° WNW 08:15:40 61° NNE 08:20:18 10° ESE visible
26 Jun 9.1 01:53:25 11° E 01:53:25 11° E 01:53:45 10° E visible
26 Jun 6.9 03:30:37 39° SW 03:32:17 77° SSE 03:36:54 10° ENE visible
26 Jun 8.2 05:10:12 10° W 05:14:36 43° N 05:19:01 10° ENE visible
26 Jun 8.3 06:52:53 10° WNW 06:57:17 42° N 07:01:43 10° E visible
27 Jun 7.6 02:10:13 10° SSW 02:14:21 35° SE 02:18:32 10° ENE visible
27 Jun 7.4 03:51:41 10° WSW 03:56:14 64° NNW 04:00:49 10° ENE visible
27 Jun 8.5 05:34:29 10° WNW 05:38:48 38° N 05:43:08 10° ENE visible
27 Jun 7.8 07:16:51 10° WNW 07:21:25 57° NNE 07:25:59 10° E visible
28 Jun 6.9 02:33:32 10° SW 02:38:05 69° SSE 02:42:39 10° ENE visible
28 Jun 8.1 04:15:55 10° W 04:20:19 45° NNW 04:24:46 10° ENE visible
28 Jun 8.4 05:58:38 10° WNW 06:03:01 41° N 06:07:24 10° E visible
28 Jun 7.1 07:40:46 10° WNW 07:45:24 89° NNE 07:50:05 10° ESE visible
29 Jun 7.8 01:16:11 10° SSW 01:20:11 30° SE 01:24:12 10° ENE visible
29 Jun 7.3 02:57:25 10° WSW 03:01:59 70° NNW 03:06:35 10° ENE visible
29 Jun 8.5 04:40:12 10° WNW 04:44:31 39° N 04:48:51 10° ENE visible
29 Jun 7.9 06:22:38 10° WNW 06:27:09 53° NNE 06:31:41 10° E visible
29 Jun 7.3 08:04:45 10° WNW 08:09:14 50° SW 08:13:43 10° SE visible
30 Jun 7.1 01:39:22 10° SW 01:43:52 60° SSE 01:48:24 10° ENE visible
30 Jun 8.1 03:21:37 10° W 03:26:03 48° NNW 03:30:31 10° ENE visible
30 Jun 8.4 05:04:23 10° WNW 05:08:43 40° N 05:13:05 10° ENE visible
30 Jun 7.1 06:46:33 10° WNW 06:51:10 81° NNE 06:55:49 10° ESE visible
30 Jun 8.1 08:29:05 10° W 08:32:52 25° SW 08:36:39 10° SSE visible
